Theta_e
318 320 321 322 322 324 327 332 328 320 318 316 318 320 318 317 317 316 319 323 324 322 319 316 315 316 316 314 310 308 308 310 313 314 317 309 301 301 299 298 298 298 299 300 299 298 298 301 308 312 313 314 315 316 316 316 317 317 317 318 318 319 320 321 323 325 327 329 331 332 334 335 335 336 336 336 336 335 336 336 335 335 335 335 335 336 330 326 333 331 331 333 332 331 330 330 329
320 321 321 322 322 324 328 328 330 324 320 316 315 316 315 315 316 314 316 320 323 323 317 312 311 309 308 307 306 307 305 305 306 306 306 303 301 300 298 298 298 298 299 299 299 298 297 301 308 311 312 314 314 315 315 316 316 316 316 316 317 318 318 319 321 323 324 326 328 330 332 334 335 335 335 335 336 335 336 336 335 335 335 336 335 337 334 329 332 332 332 332 331 331 330 330 329
321 321 320 323 323 324 328 327 330 326 321 318 314 312 313 314 314 312 311 311 314 319 316 313 312 309 308 307 306 310 307 304 303 302 303 301 299 298 298 298 298 299 298 300 299 297 297 300 307 310 311 312 313 314 314 315 315 315 315 315 316 317 318 318 319 320 322 323 325 327 329 332 334 335 335 335 335 335 335 335 334 334 335 336 335 335 335 332 332 332 332 332 331 330 330 330 329
319 319 320 323 324 323 326 325 326 324 319 318 315 312 311 310 311 310 309 307 306 311 316 318 314 309 308 308 306 307 307 304 301 300 301 299 298 298 298 298 298 298 298 299 298 296 297 300 306 309 310 311 312 313 313 313 314 315 315 314 315 316 317 317 317 318 319 321 323 325 327 329 331 333 334 335 335 335 335 335 335 334 334 335 335 334 335 335 334 333 332 332 331 330 330 330 329
316 317 318 320 323 320 320 317 318 319 316 319 316 310 310 307 310 311 308 306 305 306 310 316 315 308 306 306 306 306 304 303 301 299 298 298 298 299 299 298 298 298 298 299 297 296 296 300 305 307 308 310 311 312 312 312 313 313 314 314 314 314 315 316 316 317 318 319 320 322 324 326 328 330 331 333 335 335 335 335 335 335 334 334 335 335 335 336 334 333 332 332 331 330 330 329 329
316 316 314 315 315 313 315 312 311 312 309 314 313 308 309 307 308 309 307 306 305 305 305 309 311 308 305 304 304 303 301 303 301 298 298 298 298 298 299 298 298 298 298 298 296 296 296 299 303 305 306 308 310 310 310 311 311 312 313 313 313 313 314 315 316 316 316 317 318 319 321 323 325 327 328 330 333 335 335 335 336 336 335 334 335 335 335 335 334 333 333 332 331 331 330 329 328
319 320 318 315 314 310 312 310 309 310 307 308 309 306 309 307 306 306 306 307 306 306 305 304 306 309 308 304 304 301 300 300 299 299 299 299 298 298 298 298 298 297 298 298 295 296 296 297 302 303 304 307 308 309 309 310 310 311 312 312 312 313 313 314 314 315 315 316 316 317 319 320 322 324 326 328 330 333 334 335 335 336 336 335 336 336 335 335 334 334 333 332 331 331 331 329 326
316 320 317 312 315 314 311 309 308 310 308 306 307 307 308 306 305 305 305 306 306 305 305 304 306 311 309 306 308 303 300 300 300 299 299 299 297 297 298 298 297 296 297 297 295 296 296 296 300 300 301 305 306 307 308 309 310 310 311 311 311 312 312 313 313 314 314 314 315 316 316 318 319 321 323 326 328 329 332 334 335 335 336 336 336 336 336 335 334 334 334 332 331 331 331 328 324
314 318 317 312 313 312 310 310 309 308 308 306 306 307 308 305 305 305 305 305 305 304 305 305 306 310 307 305 307 304 301 301 301 300 300 299 297 297 297 297 297 296 296 295 294 295 295 295 298 298 298 302 304 305 306 307 308 309 310 310 310 310 311 312 312 312 312 313 313 314 314 315 316 318 320 323 325 327 329 331 334 335 336 336 336 336 336 336 335 333 334 333 331 331 331 328 324
316 317 316 314 312 310 309 311 310 306 306 306 305 305 306 304 304 305 306 305 305 305 305 305 305 307 306 305 305 303 302 301 301 300 300 299 297 296 296 297 296 295 295 294 294 295 294 295 297 296 295 298 300 302 304 305 307 308 309 310 309 309 310 310 310 310 310 311 312 312 313 313 314 315 317 320 322 324 326 329 332 334 335 336 336 336 335 336 335 334 334 334 332 330 331 329 326
324 320 315 315 314 313 310 309 309 305 305 306 305 305 305 304 305 304 305 305 304 305 305 305 306 306 305 306 306 303 302 302 301 301 300 299 297 296 296 296 295 295 295 294 294 294 293 294 295 295 293 295 297 300 303 303 305 307 308 308 308 308 309 309 309 309 309 310 310 311 311 311 312 313 315 316 318 320 324 327 330 332 334 335 335 336 335 336 336 335 334 333 333 331 330 329 327
322 319 316 318 315 312 308 308 308 306 307 307 305 305 305 305 306 304 304 305 305 307 305 306 305 305 306 305 306 303 302 303 301 301 300 299 298 297 296 296 295 295 294 294 294 293 293 293 294 294 292 293 295 299 302 302 303 305 307 307 307 307 307 308 308 308 308 308 309 309 309 309 310 311 312 313 315 318 321 325 328 330 332 334 335 335 335 335 335 335 334 333 333 331 330 329 328
321 317 318 316 311 309 308 308 308 309 309 306 305 305 305 306 305 304 305 306 306 307 305 304 304 305 306 304 306 304 302 303 301 301 300 298 298 297 297 296 295 295 294 294 293 293 293 293 293 293 292 292 294 299 302 302 302 303 304 304 305 305 306 306 306 306 306 306 307 307 307 307 308 309 309 310 313 315 318 322 326 329 331 334 335 335 335 335 335 335 334 334 333 332 330 329 328
324 323 320 313 310 310 310 309 310 311 308 304 305 305 306 306 304 305 306 307 305 306 305 304 303 306 306 304 309 308 303 303 302 301 299 298 298 297 297 296 296 295 294 293 293 293 292 292 292 292 292 292 293 297 300 301 301 301 301 301 303 304 304 305 305 305 304 304 305 305 305 306 306 306 307 308 311 313 316 320 324 327 329 332 333 334 335 335 335 334 334 335 333 332 331 329 329
322 324 322 316 313 313 311 310 311 311 306 304 306 305 306 305 304 306 307 306 305 304 304 304 303 305 306 305 308 308 303 303 303 301 299 298 298 297 297 297 296 295 294 293 293 292 292 292 292 291 292 292 292 295 297 299 299 297 297 297 299 302 303 303 303 303 303 303 303 303 303 303 304 304 305 306 308 310 314 317 321 325 327 330 331 332 334 335 335 334 334 335 333 332 331 330 329
316 320 322 317 312 311 309 309 308 307 306 305 305 305 306 305 305 306 305 305 305 304 304 305 304 304 305 304 305 305 303 303 303 300 299 299 298 297 298 297 297 295 294 293 293 292 292 292 291 291 291 291 292 293 294 296 297 296 295 295 297 300 301 302 302 302 302 302 301 301 302 302 303 302 303 305 306 308 312 314 318 323 326 328 330 332 334 335 335 334 334 334 334 333 332 330 329
315 314 315 314 310 311 309 308 308 306 306 306 305 305 306 305 305 305 303 305 306 305 305 305 303 303 304 304 304 303 303 303 301 299 299 299 298 297 297 297 297 296 295 294 293 292 291 292 291 291 291 291 292 292 294 295 295 295 295 294 295 298 300 301 300 301 301 300 300 300 301 303 302 301 302 304 305 306 310 312 316 321 324 327 329 331 332 334 334 334 334 334 334 333 332 330 329
321 316 310 310 311 310 307 308 307 305 306 305 304 305 307 306 306 305 305 305 306 305 305 305 304 303 303 303 303 303 303 301 300 299 299 299 298 297 297 297 297 296 295 294 293 292 291 292 291 291 291 291 292 292 293 294 294 294 294 294 293 297 300 299 299 299 299 298 298 298 299 301 302 302 302 302 304 305 307 310 314 319 322 326 328 330 331 332 333 334 334 334 334 334 331 330 329
316 317 311 309 310 307 304 306 307 305 305 305 304 306 307 305 304 305 306 306 305 307 307 307 307 306 305 304 303 304 302 300 299 299 299 298 297 297 297 296 297 296 295 295 294 292 292 292 292 291 291 292 292 292 292 293 293 293 294 293 292 296 299 299 299 298 297 297 297 297 298 299 301 303 302 302 303 304 305 307 312 316 319 324 327 329 331 331 332 333 334 334 334 334 332 330 329
308 314 315 309 307 306 304 306 307 306 306 306 305 305 306 305 304 305 307 307 307 308 308 307 307 308 308 304 303 304 302 300 299 299 299 298 297 297 297 296 296 296 295 295 294 293 292 292 291 291 292 292 292 292 292 292 293 293 293 293 292 296 298 299 300 298 297 297 296 297 297 298 300 302 304 303 303 304 304 307 310 315 318 322 325 328 329 329 330 332 333 333 334 334 332 330 329
306 310 314 307 306 308 304 305 307 306 306 307 306 305 305 304 305 306 306 306 308 309 307 307 307 308 309 305 303 303 302 300 299 299 298 298 298 297 297 296 296 296 295 295 295 293 292 292 291 291 292 292 291 292 292 292 292 292 292 292 292 295 297 297 298 297 296 296 296 296 297 297 298 301 304 304 304 304 305 306 309 313 317 321 324 327 328 329 329 330 330 329 331 332 332 330 329
306 306 308 305 306 308 304 305 307 306 307 307 306 305 305 304 305 307 307 307 310 311 308 307 307 307 307 305 303 302 301 300 300 299 298 298 298 298 298 297 297 296 296 295 294 294 292 292 291 292 292 291 291 291 291 291 291 291 292 292 292 295 295 295 296 295 295 295 295 296 296 297 297 299 302 305 305 305 306 307 308 311 315 320 324 325 327 329 328 328 329 328 327 330 331 330 329
307 305 304 305 306 306 305 307 308 308 308 307 306 304 304 305 304 306 308 308 310 309 306 305 305 305 304 303 302 301 300 300 300 299 298 298 298 298 298 298 297 296 296 295 294 294 293 292 292 291 291 291 291 291 291 291 291 291 291 292 292 293 294 294 294 294 294 294 295 295 296 296 296 297 300 303 306 307 308 309 310 311 314 319 323 325 327 328 329 328 329 328 326 327 330 329 329
306 306 304 305 306 305 306 307 308 309 308 306 305 304 304 306 304 304 306 307 308 306 303 303 304 303 302 302 301 300 300 300 300 299 298 298 298 298 298 298 297 297 296 295 295 294 293 293 292 291 291 291 290 291 291 291 291 291 291 292 292 292 293 293 293 293 294 294 295 295 295 296 297 297 298 302 306 308 309 311 312 313 315 319 323 325 326 327 328 328 328 327 325 327 329 329 329
306 305 304 304 306 306 307 309 309 309 308 306 305 305 305 305 304 304 305 307 308 304 302 302 302 303 303 301 300 300 301 301 300 299 299 299 299 299 299 298 297 297 297 296 295 294 293 293 293 292 291 291 290 290 291 290 291 291 291 292 292 292 292 292 293 293 294 295 296 296 296 297 298 297 298 301 305 308 310 313 314 315 316 320 323 324 325 326 327 328 328 326 326 328 328 327 327
306 306 305 306 306 306 306 307 308 309 309 308 305 305 304 304 304 306 307 308 307 303 303 304 302 305 307 304 300 300 301 301 301 299 299 300 299 300 299 299 298 297 297 296 295 294 294 294 293 292 291 291 290 290 290 290 291 292 292 292 292 292 292 292 293 293 293 295 297 298 298 299 299 298 299 301 305 308 311 313 315 316 317 321 324 325 325 326 327 328 328 327 327 328 327 326 326
305 305 305 306 305 305 305 305 306 307 307 307 307 306 305 306 306 309 308 307 307 305 307 307 306 308 309 305 301 301 301 301 301 300 300 300 300 300 300 300 300 298 297 296 296 295 294 294 294 293 292 291 290 290 290 291 291 292 292 292 292 292 292 292 293 293 294 295 297 299 299 301 301 300 300 302 305 309 311 314 316 317 318 321 324 325 324 324 325 327 328 328 327 326 324 324 324
304 305 305 304 305 304 304 305 305 305 304 306 308 306 306 306 308 311 309 307 307 306 308 308 308 309 308 306 302 300 302 302 301 300 300 301 300 300 300 300 300 299 297 296 296 296 295 294 294 294 293 292 291 290 290 291 292 292 292 291 291 291 291 292 293 294 295 296 299 300 301 302 302 302 303 305 307 309 312 314 318 318 319 322 323 324 324 324 326 327 326 326 326 325 323 322 321
304 306 306 304 308 308 304 305 305 304 305 305 305 306 309 309 310 312 309 307 306 305 308 308 309 309 308 307 304 300 301 302 301 301 301 301 301 300 300 301 300 299 298 297 297 297 296 295 294 294 294 293 291 290 290 291 292 292 291 290 291 291 291 292 292 293 294 297 300 302 303 304 304 304 305 307 308 309 312 315 318 320 321 323 324 324 324 325 327 327 325 325 325 324 322 320 319
305 306 307 308 315 312 304 305 305 304 306 305 303 308 316 315 313 312 308 307 305 305 308 309 309 308 306 307 307 303 301 301 301 301 302 302 301 301 301 301 300 300 299 298 297 297 297 296 295 294 294 293 292 291 290 291 291 291 291 290 290 290 291 291 291 292 295 298 300 302 304 305 306 306 307 308 308 310 312 314 317 321 323 325 325 325 325 325 326 325 324 324 322 321 319 316 317
308 306 310 315 318 311 306 307 306 304 306 304 304 311 318 314 312 310 307 307 305 305 309 309 309 308 307 307 307 305 302 301 301 302 302 302 302 301 301 301 300 300 300 299 298 297 297 297 296 295 294 294 293 292 291 291 291 291 290 290 290 290 290 291 291 292 295 300 302 303 305 306 307 307 308 308 309 311 311 312 316 321 323 324 324 324 324 324 324 322 321 321 319 317 316 314 314
312 307 314 318 316 311 310 308 305 304 304 303 305 313 317 311 310 309 306 308 305 305 310 310 309 307 306 306 306 306 303 300 301 302 302 301 302 301 301 301 300 300 300 299 298 297 297 297 297 296 295 294 293 292 292 291 291 291 290 290 290 290 290 290 290 293 297 301 304 306 306 306 307 308 309 310 310 311 311 312 315 319 321 322 322 321 321 321 321 320 318 318 316 313 313 311 311
321 313 312 314 313 311 310 308 304 305 305 303 304 309 312 308 308 308 305 307 307 306 309 310 309 306 306 307 306 307 306 304 302 302 302 302 301 301 300 301 300 300 300 299 299 298 298 298 297 296 296 295 294 293 292 292 291 291 290 290 290 290 290 290 290 292 298 301 302 305 306 306 307 307 308 309 312 313 312 313 315 317 318 319 319 318 316 316 317 317 313 312 312 310 309 308 307
327 320 317 313 311 310 311 309 305 305 306 305 304 306 309 309 307 307 305 306 307 307 309 310 308 308 308 308 307 307 309 309 305 302 302 302 301 301 301 300 300 300 300 300 299 299 298 298 298 297 296 296 295 294 292 292 292 291 291 290 290 290 290 290 290 291 294 299 302 304 306 308 308 308 308 308 310 313 314 314 315 315 316 316 316 314 312 311 312 313 310 307 307 306 304 303 302
319 317 318 317 314 312 311 310 306 305 306 307 306 305 308 310 308 307 306 305 307 307 309 310 310 311 310 310 309 308 310 310 304 302 302 302 301 301 301 300 300 300 299 299 299 299 298 298 298 297 296 296 296 295 293 293 293 292 292 291 290 290 290 290 290 289 291 295 301 305 308 308 309 309 310 310 309 310 312 314 314 314 315 315 314 312 309 308 309 309 308 306 304 303 301 300 299
312 310 311 312 314 315 311 307 306 304 306 310 310 307 308 310 309 309 307 304 305 307 307 309 310 312 312 312 312 311 312 308 302 302 303 302 302 301 301 300 300 300 299 299 299 299 299 298 298 297 296 296 296 296 295 294 293 293 292 291 291 290 290 290 290 289 289 291 296 302 307 309 309 308 309 311 310 310 310 311 312 313 314 314 313 311 309 308 308 307 306 305 304 302 300 300 300
308 309 311 312 312 316 313 306 305 304 308 313 310 308 310 309 308 308 307 305 305 306 307 309 308 308 310 311 311 311 311 305 301 302 303 301 302 301 301 301 300 300 299 299 299 299 299 298 298 297 296 296 296 296 295 294 292 292 292 291 291 290 290 290 290 289 289 290 291 296 302 307 309 309 309 310 311 311 310 310 310 311 312 313 313 312 311 309 308 308 306 305 305 303 301 301 302
309 310 313 315 312 312 310 305 306 305 307 313 311 309 309 307 307 306 305 304 306 307 307 309 308 308 310 311 311 310 309 304 300 302 302 301 302 301 301 301 301 300 299 299 298 298 298 298 298 297 297 296 296 295 295 294 292 291 292 291 290 291 290 290 289 290 289 289 290 291 295 301 307 309 309 309 310 310 310 310 310 310 309 310 309 310 310 310 309 308 308 306 305 305 302 301 303
313 313 314 315 311 309 310 307 307 304 306 316 313 308 309 308 308 307 305 304 307 309 309 311 310 308 310 311 310 309 310 308 304 302 301 302 302 301 302 301 301 301 300 299 298 298 298 298 298 297 297 297 296 295 295 294 293 292 292 291 290 291 291 290 289 290 289 289 289 290 291 294 300 305 308 308 308 308 309 309 309 309 309 308 308 307 307 307 307 307 308 307 304 303 302 301 303
311 314 314 313 308 308 312 312 308 303 304 312 310 309 314 315 313 309 305 304 307 310 311 312 310 308 310 310 307 307 307 309 309 303 300 301 302 301 301 301 301 301 300 299 298 298 298 298 298 297 297 297 297 297 296 295 295 294 293 293 292 292 292 291 290 290 290 290 290 290 290 290 293 298 303 307 308 307 307 307 307 308 308 309 309 309 307 306 306 306 306 306 304 303 302 301 303
312 311 311 310 306 305 307 308 306 306 307 305 308 318 322 319 319 315 308 305 306 309 309 310 310 309 310 309 307 308 307 307 310 307 301 300 301 301 301 301 301 301 301 300 299 299 299 298 298 298 297 297 297 297 297 296 296 295 295 295 294 293 293 292 291 291 290 290 290 290 290 290 290 292 295 301 305 306 307 306 307 307 307 307 308 309 308 307 308 308 307 307 306 305 304 302 302
315 309 306 305 304 304 305 306 307 317 317 305 307 323 328 324 321 317 313 310 306 307 309 310 311 311 310 310 309 310 311 307 305 304 301 300 301 301 301 301 301 301 301 301 300 299 299 299 298 298 298 297 297 297 297 296 296 295 295 294 293 292 292 292 291 290 290 290 290 290 289 290 290 290 291 293 297 302 305 306 305 306 306 306 306 307 307 306 307 307 307 308 307 307 306 304 303
315 307 305 304 304 304 306 308 309 317 317 306 307 316 323 327 322 315 314 312 308 310 313 313 314 313 311 311 310 311 312 309 304 302 299 300 302 301 301 302 301 302 301 301 301 300 299 299 298 298 298 298 297 297 297 297 296 296 295 294 292 291 291 292 291 291 290 290 290 290 289 289 289 290 290 291 292 294 299 303 304 305 305 305 305 305 306 306 306 306 306 306 306 306 307 305 304
311 306 306 305 305 306 306 308 309 311 311 313 315 311 311 324 326 318 313 310 312 317 317 316 315 315 313 311 310 311 312 311 311 308 301 299 302 301 301 302 302 302 302 301 301 301 300 299 299 298 298 298 297 297 297 297 296 296 296 295 294 293 292 292 292 292 291 290 290 290 290 289 289 289 290 290 290 291 292 295 299 302 304 305 305 305 305 304 305 305 305 305 305 305 305 305 305
307 305 305 304 304 306 305 308 313 310 310 320 322 310 310 327 329 320 313 308 314 320 318 315 313 313 312 311 311 311 312 310 306 305 302 299 301 301 301 301 302 302 302 302 302 301 301 300 299 299 298 298 298 297 297 297 297 296 296 296 295 295 294 293 293 292 292 292 292 291 291 290 289 289 289 289 290 290 290 291 292 295 298 301 303 304 304 303 303 304 305 305 305 305 304 303 304
305 304 305 305 306 308 306 309 313 313 316 320 317 308 311 329 333 323 313 309 315 320 318 315 312 312 312 311 312 311 314 312 303 298 299 300 301 301 301 301 302 302 302 302 302 301 301 300 300 299 299 299 298 298 297 297 297 297 296 296 296 295 295 294 294 293 293 293 293 292 292 291 290 289 289 289 289 289 290 290 290 291 291 293 296 299 301 303 303 303 303 302 302 303 303 303 302
304 305 308 309 310 310 308 309 310 316 326 320 311 307 308 323 335 325 313 313 317 316 313 311 312 314 314 314 314 312 312 313 306 298 298 301 302 302 302 302 302 302 302 302 302 301 301 301 300 300 299 299 299 298 298 297 297 297 297 296 296 296 295 295 295 294 294 294 293 293 293 292 292 291 290 289 289 289 289 289 290 290 290 290 291 292 294 297 300 301 302 301 301 300 301 301 300
304 307 310 311 317 315 313 319 319 321 328 319 310 308 306 316 329 323 315 315 315 312 309 310 312 314 315 314 314 313 311 312 311 304 299 299 301 302 303 302 302 302 302 302 302 302 301 301 301 300 300 300 299 299 298 298 297 297 297 297 296 296 296 295 295 294 294 294 294 294 293 293 292 292 292 290 290 289 289 289 289 289 289 290 290 290 290 291 293 294 296 298 300 300 300 300 300
307 312 315 318 331 328 323 332 330 326 325 313 306 306 308 316 322 320 318 313 311 311 311 311 312 313 314 313 313 314 313 312 312 310 303 297 299 302 302 302 302 302 302 302 302 302 301 301 301 301 300 300 300 299 299 298 298 298 297 297 297 297 296 296 295 295 295 294 293 293 293 293 293 293 293 292 291 290 290 289 289 289 289 289 289 290 290 290 290 290 291 292 294 296 297 297 297
311 313 315 322 333 331 330 332 325 324 326 312 303 306 315 321 317 315 315 311 310 311 311 313 313 312 312 311 312 312 313 312 310 311 305 297 298 301 301 302 302 302 302 302 302 302 302 301 301 301 301 300 300 299 299 299 298 298 298 297 297 297 297 296 296 296 295 295 294 294 293 293 293 294 293 293 292 292 291 290 290 289 289 289 289 289 289 289 290 290 290 290 290 291 291 292 292
311 307 310 321 322 321 327 329 325 325 324 316 307 310 321 322 314 312 311 309 309 309 310 312 312 311 310 309 310 311 312 311 310 311 305 297 299 302 301 302 302 302 302 302 302 302 301 301 301 301 301 300 300 300 299 299 299 298 298 297 297 297 297 297 297 297 296 296 295 294 294 294 294 294 294 294 293 293 292 291 291 290 290 289 289 289 289 289 289 289 290 290 290 290 290 290 290
310 307 314 320 314 316 318 316 318 316 316 322 317 314 322 318 310 309 310 309 308 308 310 309 309 310 310 310 311 311 313 312 312 316 309 299 300 302 301 302 302 302 302 301 302 302 301 301 301 301 301 300 300 300 299 299 299 299 298 298 298 297 297 297 297 297 297 296 296 295 295 295 294 294 294 294 294 293 293 292 292 292 291 290 290 289 289 289 289 289 289 289 290 290 290 290 290
312 313 316 309 305 314 316 309 310 309 314 325 320 316 323 318 311 310 310 310 308 309 310 308 309 311 311 312 313 313 314 313 313 314 306 299 300 302 302 302 302 302 302 302 302 301 301 301 301 301 301 300 300 300 300 300 299 299 299 298 298 297 297 297 297 297 297 297 297 296 296 296 296 295 295 294 294 293 293 293 293 292 292 291 290 290 289 289 289 289 289 289 289 289 290 290 290
313 318 311 304 304 311 314 314 319 318 322 326 319 318 322 320 320 314 306 307 310 310 311 309 310 311 311 312 314 314 314 312 310 308 300 297 299 302 302 303 303 302 302 302 302 302 301 301 301 301 301 300 301 301 300 300 300 300 300 299 299 298 297 297 297 297 297 297 297 297 297 297 297 296 296 295 294 294 294 293 293 293 292 292 291 290 290 289 289 288 288 288 289 289 289 289 290
307 310 304 306 312 315 315 317 320 321 322 325 322 318 316 319 326 319 308 310 313 312 313 312 311 311 312 313 314 314 313 311 311 311 304 298 299 302 303 303 303 303 303 302 302 302 302 302 301 301 301 301 301 301 301 301 300 300 300 300 299 299 299 298 297 297 297 297 297 297 297 297 297 297 297 296 296 295 295 294 294 293 293 292 292 291 291 290 289 288 288 288 288 288 289 289 289
305 309 306 310 313 311 312 311 311 317 319 322 323 324 325 326 326 321 313 315 317 316 316 314 313 313 313 314 313 312 313 311 310 312 307 298 298 302 303 303 303 303 303 303 302 302 302 302 302 301 301 301 301 301 301 301 301 300 300 300 300 300 299 299 298 298 297 297 297 297 297 297 297 297 297 297 296 296 296 295 295 294 294 293 293 292 291 291 289 289 289 289 289 288 288 288 288
310 315 311 312 309 305 308 307 306 313 319 320 320 324 331 326 318 317 317 317 317 316 316 314 315 317 315 314 313 310 311 310 309 310 305 297 299 303 303 303 303 302 303 303 302 302 302 302 302 302 302 301 301 301 301 301 301 300 300 300 300 300 300 299 299 299 298 298 298 298 297 297 297 297 297 297 297 296 296 296 295 295 294 294 293 293 292 292 290 290 289 289 289 288 288 288 288
305 310 310 313 312 310 316 315 308 307 312 317 316 318 324 319 311 312 313 315 316 316 316 314 315 317 315 314 311 308 307 308 308 307 300 296 299 302 302 303 302 302 302 302 302 302 302 302 302 302 302 302 301 301 301 301 301 300 300 300 300 300 300 300 299 299 299 299 299 298 298 298 298 297 297 297 297 296 296 296 295 295 295 294 294 293 293 292 291 291 290 290 289 289 288 288 288
Wind_Speed
9 7 5 5 4 3 4 5 4 4 4 5 3 2 3 2 1 1 4 3 1 1 1 3 4 3 4 5 6 6 5 3 2 2 0 3 12 16 20 23 22 21 22 22 25 28 30 32 27 27 28 26 25 24 24 23 23 23 23 23 22 21 20 20 19 19 17 16 15 13 12 11 11 12 11 12 14 16 16 16 16 15 14 13 11 10 8 9 10 10 11 9 9 9 8 8 8
10 7 5 5 6 4 1 4 5 3 5 5 3 1 2 4 2 3 4 3 1 1 3 4 6 7 8 8 6 5 4 3 2 1 2 8 15 17 21 21 21 21 21 21 24 27 29 30 27 27 27 26 25 24 24 23 23 22 23 23 22 21 20 20 19 20 19 17 17 15 15 11 10 12 12 13 15 16 17 17 18 16 15 14 13 12 11 11 11 12 11 10 10 10 9 9 9
11 8 7 5 7 7 2 5 5 2 5 4 2 2 2 3 2 3 3 4 4 2 5 4 6 5 4 4 4 4 1 2 3 2 3 10 13 18 23 20 19 19 20 21 23 26 28 28 26 26 26 26 25 25 24 23 23 22 23 22 22 21 21 21 20 20 20 19 18 17 18 13 11 12 12 14 16 17 18 19 20 18 17 17 16 15 15 14 13 13 12 12 12 11 11 10 10
12 9 6 5 5 6 4 5 3 4 4 3 1 4 2 1 1 2 3 5 6 4 2 1 4 3 3 4 3 3 1 1 3 4 4 11 13 19 20 17 18 19 20 19 22 26 27 27 27 26 26 26 26 25 26 24 23 22 22 22 22 22 21 21 21 21 20 20 20 19 18 16 15 15 12 11 14 17 19 20 21 21 20 19 19 17 16 16 15 15 14 13 13 12 12 11 10
19 16 10 8 4 3 4 4 3 4 3 3 2 3 4 2 1 2 2 5 6 7 4 2 2 2 4 4 2 2 3 2 3 7 8 13 15 17 17 16 18 20 20 18 22 25 25 27 27 26 26 26 26 26 26 25 24 22 22 22 22 22 21 21 21 21 21 20 20 20 19 17 17 18 16 12 12 15 19 22 21 22 23 21 21 19 18 17 17 16 16 15 14 13 13 12 11
18 23 23 17 6 2 4 4 4 5 2 2 4 2 5 4 1 2 1 4 5 7 6 4 2 2 4 2 3 2 2 3 3 6 10 15 17 16 16 17 18 19 17 17 23 23 22 26 26 26 27 26 26 26 26 25 25 23 22 23 23 23 21 21 21 21 21 20 20 20 19 19 18 19 19 16 14 13 17 21 22 21 23 24 21 20 20 19 18 18 17 17 16 15 15 14 13
8 9 15 14 5 4 6 5 5 4 2 2 4 2 5 5 2 4 5 4 5 6 6 5 2 5 2 0 3 2 3 5 3 6 11 16 18 15 15 17 17 18 16 19 22 20 21 25 25 25 27 27 26 26 26 25 23 22 23 24 24 23 22 21 21 21 20 20 20 20 20 20 19 20 19 18 16 14 15 17 19 21 22 23 21 19 21 21 20 19 19 19 17 17 16 15 14
13 5 3 7 5 5 5 5 4 2 2 3 2 3 5 5 2 5 6 4 3 4 6 5 2 4 1 1 1 3 2 7 6 8 13 18 18 15 15 16 16 18 17 20 20 18 21 25 25 25 26 26 26 26 25 24 23 22 23 24 25 24 22 21 21 21 20 20 20 20 20 19 19 20 20 19 18 18 17 15 15 20 22 22 22 20 20 21 21 20 20 19 18 18 18 16 14
16 8 3 6 5 4 5 4 4 2 2 3 3 4 4 5 4 4 4 5 2 1 6 6 3 4 1 3 1 5 2 7 10 10 13 18 19 16 15 14 17 19 18 20 19 18 22 25 26 26 27 26 26 26 25 24 23 23 22 23 25 24 22 22 22 21 21 20 20 20 20 20 19 19 20 19 19 19 18 16 14 16 22 23 21 20 20 21 22 22 20 19 19 19 18 16 14
9 6 4 5 4 5 5 3 2 2 1 1 3 4 4 3 4 5 4 4 3 2 5 5 2 4 4 2 2 3 2 8 12 13 15 18 20 18 15 15 17 17 18 21 18 19 22 24 26 27 28 27 27 27 25 24 24 24 22 23 25 25 23 22 23 22 22 21 21 20 20 20 20 20 20 20 19 19 17 17 15 13 17 20 19 19 21 21 21 22 20 19 19 19 18 16 15
4 4 4 5 5 5 4 3 3 1 2 2 3 3 3 3 4 5 3 2 2 2 4 3 3 3 3 1 3 3 2 9 12 14 16 18 21 20 18 17 17 17 19 21 19 21 22 23 26 27 28 27 28 28 27 25 24 24 23 23 25 25 24 23 23 23 23 21 21 20 20 20 20 20 20 20 19 18 17 17 17 15 15 17 19 20 20 20 20 21 20 19 19 19 18 17 16
4 3 4 6 4 3 4 5 4 2 3 3 3 4 1 4 5 3 3 2 2 3 3 3 1 2 3 1 3 5 4 9 12 14 15 17 20 21 21 19 18 19 20 21 21 21 22 23 25 27 27 27 28 28 27 26 25 24 24 25 25 25 24 24 24 24 23 21 20 20 20 20 20 21 21 20 19 17 16 16 18 17 15 15 17 20 19 19 21 21 22 20 20 19 18 18 16
4 2 5 5 2 4 5 5 4 2 3 2 2 4 1 4 3 4 3 3 3 4 3 4 1 3 2 2 3 3 7 12 12 13 13 16 19 20 22 20 20 21 21 21 21 22 23 24 25 26 26 26 27 28 27 27 27 25 26 26 25 26 25 25 25 24 23 21 20 19 20 20 20 21 20 19 18 17 16 16 18 18 16 15 15 18 20 20 22 23 23 22 21 21 19 18 17
3 3 5 4 2 4 4 4 2 3 1 3 3 4 2 2 3 5 4 4 4 1 2 4 1 3 1 2 4 3 8 12 11 11 12 16 18 20 22 21 22 22 23 22 22 23 24 24 25 26 26 26 27 28 28 27 28 28 30 30 27 26 25 25 25 24 22 21 20 19 19 20 21 20 19 18 18 18 16 16 18 18 17 16 16 17 19 21 22 23 23 22 23 22 20 18 17
4 3 5 5 3 3 2 2 3 4 2 3 2 2 2 1 3 2 4 4 3 2 1 4 3 2 0 1 3 6 8 11 10 9 10 16 18 19 21 22 23 23 23 23 23 24 24 25 25 26 26 26 26 28 28 28 29 30 33 34 31 27 25 26 25 23 21 20 20 20 19 20 21 19 17 17 18 18 15 15 17 19 17 16 16 15 18 21 21 23 23 23 24 23 22 20 19
4 4 5 5 3 3 1 2 3 3 2 4 2 2 3 3 0 3 2 4 0 3 2 2 3 2 3 3 5 8 10 11 8 8 11 16 18 18 21 22 24 24 24 23 24 25 25 25 25 26 26 26 27 27 28 29 30 30 33 36 34 29 26 26 24 23 21 19 20 20 20 21 20 18 18 18 18 17 15 14 16 19 18 17 15 16 18 20 20 22 23 23 24 22 23 22 20
4 5 6 5 3 2 2 2 4 3 3 4 2 1 3 3 3 1 1 5 3 2 3 1 2 1 4 4 6 8 10 8 6 8 13 17 17 18 22 23 24 25 25 24 25 26 26 25 25 26 26 27 27 27 28 29 30 31 33 36 37 33 29 27 24 22 21 20 21 21 21 20 19 19 19 18 18 16 15 15 16 18 19 18 16 16 18 18 19 21 22 23 23 23 24 22 21
6 4 5 5 3 2 2 5 5 3 3 3 1 2 6 1 3 1 2 5 3 3 3 2 4 2 3 5 7 8 8 5 4 8 14 15 14 16 19 22 24 25 26 26 25 26 26 25 24 25 26 28 28 28 28 29 30 32 34 36 37 35 31 29 25 22 21 21 21 21 20 19 19 19 18 18 18 17 17 17 17 17 17 19 18 16 17 19 20 21 22 22 22 22 24 23 21
5 3 5 3 4 2 2 4 4 3 5 4 1 3 4 2 2 0 2 1 2 3 3 4 5 5 5 6 7 8 7 2 3 9 12 13 12 12 15 19 21 23 25 25 25 26 26 26 24 24 26 28 28 28 28 29 30 31 33 35 37 36 31 29 26 22 20 20 20 21 20 19 19 19 18 17 18 19 19 18 17 16 16 17 18 18 17 19 20 21 22 22 21 22 24 24 23
4 4 5 1 5 3 1 2 3 4 7 6 3 2 3 0 2 2 4 2 2 1 3 2 3 6 7 8 9 10 7 2 4 8 9 12 12 11 13 15 18 20 23 24 24 25 26 26 25 25 26 27 28 28 28 29 29 30 33 34 36 36 31 29 26 21 20 19 19 20 20 19 18 18 18 18 18 19 19 18 16 15 14 15 16 18 17 17 18 19 20 21 20 22 24 25 25
4 3 5 4 5 5 0 0 2 2 5 6 3 3 3 1 1 3 5 3 2 3 5 4 5 7 6 9 11 11 7 2 4 6 7 10 11 12 14 15 16 19 21 23 23 24 25 24 24 25 25 26 27 27 28 29 29 29 31 33 35 35 32 29 26 22 20 18 18 19 20 20 19 19 17 18 18 18 18 17 16 14 13 13 14 16 17 16 18 21 21 21 21 22 24 27 28
5 3 3 4 4 5 2 2 1 1 4 4 3 3 1 1 3 2 6 3 4 5 5 7 7 7 7 8 11 11 5 2 4 4 4 7 9 12 14 16 16 17 19 21 22 23 23 23 23 25 25 26 26 25 26 27 28 28 30 32 35 36 32 30 26 23 20 17 17 18 19 20 21 20 17 17 17 17 17 16 16 14 12 12 12 14 15 15 19 24 22 22 22 21 23 27 29
5 3 4 2 3 5 2 2 3 2 6 4 2 1 1 2 1 1 5 4 6 6 6 8 8 9 8 8 9 8 4 3 4 2 3 6 8 11 14 16 16 16 18 19 21 21 22 23 23 25 25 26 25 24 25 27 28 28 29 30 33 36 33 31 28 23 20 18 17 17 18 19 21 21 19 17 15 16 15 15 15 14 11 11 11 10 13 14 19 25 23 22 22 21 22 25 27
7 3 2 3 4 4 2 1 3 5 6 1 1 1 2 3 1 0 1 5 6 6 8 9 10 10 8 8 8 6 4 4 4 1 2 6 9 11 14 15 15 16 17 19 20 21 22 23 23 24 25 25 25 25 24 26 27 27 27 27 29 35 34 31 28 24 21 19 17 17 17 18 20 20 19 17 15 15 14 14 13 12 11 10 9 8 10 12 16 24 25 24 23 22 22 24 25
6 4 2 1 2 2 0 3 4 4 4 1 2 2 2 4 2 0 4 7 6 7 8 9 9 8 8 7 8 6 3 5 5 2 2 6 9 12 14 15 16 16 17 19 20 20 22 23 23 24 24 25 25 25 25 25 25 24 25 26 27 31 33 32 29 26 23 20 19 18 17 18 19 19 19 18 16 14 14 13 11 11 10 8 8 6 7 9 14 20 26 26 23 22 22 24 24
2 5 4 3 3 1 1 3 2 1 1 2 4 2 5 3 1 1 6 7 7 5 5 7 6 7 8 7 7 4 3 5 5 3 4 7 9 12 15 16 17 17 17 18 19 20 21 22 23 24 24 25 24 25 25 23 23 24 25 27 26 28 32 35 32 28 26 23 20 19 18 18 18 18 20 19 17 15 13 12 11 11 9 7 7 5 4 6 11 16 24 26 22 22 23 24 23
3 6 5 5 4 0 1 2 1 1 1 1 3 2 5 4 2 2 6 7 5 4 5 6 4 6 7 7 6 3 3 5 5 4 5 8 9 12 14 16 18 17 17 18 19 19 20 22 22 24 25 24 24 25 25 23 22 24 26 26 26 27 31 35 33 29 27 24 21 20 19 18 18 19 20 19 17 15 12 11 10 9 8 6 7 6 4 4 7 11 22 29 27 24 23 23 23
6 7 6 5 3 3 4 1 2 1 0 2 5 1 4 4 1 4 7 6 2 2 6 7 4 6 6 6 6 3 4 4 4 4 6 9 9 11 13 15 17 18 17 17 18 18 20 22 22 23 24 24 24 25 25 23 22 24 25 26 26 27 29 32 34 30 27 25 23 22 21 19 18 19 19 17 16 15 13 11 8 5 3 2 4 5 5 6 4 5 12 26 29 25 23 23 23
5 5 6 4 5 5 5 2 1 1 1 3 4 2 5 3 4 7 7 3 0 1 5 7 5 5 5 6 5 4 5 5 3 4 7 10 9 10 12 14 16 17 17 16 17 18 19 21 22 22 24 24 24 25 25 23 22 23 24 25 26 27 29 31 33 32 29 27 25 24 22 19 18 18 17 16 15 15 12 9 4 2 3 4 4 6 6 5 4 4 11 22 25 23 23 24 26
2 3 6 2 6 5 4 3 2 1 1 2 3 2 5 6 7 8 6 2 0 3 6 5 5 5 5 5 5 4 4 4 4 5 9 10 9 9 11 13 15 17 17 16 16 17 19 20 21 22 23 24 24 25 25 23 22 22 23 25 26 27 29 29 31 32 31 28 27 26 23 19 17 16 17 17 17 15 12 11 9 8 8 7 7 8 8 7 7 11 15 20 23 24 25 26 27
2 2 3 3 4 2 6 4 3 1 1 4 5 1 5 7 8 7 5 3 3 4 6 5 5 5 5 5 4 4 4 3 5 8 10 10 9 9 11 13 15 17 17 16 16 17 18 19 21 22 22 23 24 25 25 23 22 21 22 24 26 27 28 29 30 31 31 29 28 27 24 21 19 17 17 18 17 16 16 16 15 13 9 6 5 7 8 9 10 13 16 20 24 27 28 27 26
3 2 3 4 3 1 7 3 4 1 3 3 5 1 5 6 8 7 4 2 3 4 6 5 5 4 5 5 3 3 5 4 5 9 11 10 8 9 11 12 14 16 17 16 16 16 17 18 20 22 22 23 23 24 24 23 21 20 21 23 25 27 27 29 30 31 32 29 27 25 24 23 21 20 20 19 18 17 18 19 18 15 12 10 9 9 11 12 13 16 18 21 25 28 29 29 27
3 3 1 3 3 3 4 1 2 1 2 2 1 2 3 3 5 6 3 3 3 5 7 6 5 5 5 5 3 3 5 5 7 10 11 10 9 10 11 12 14 16 16 15 15 17 17 17 19 21 21 22 22 23 24 24 22 20 20 21 24 25 27 29 30 31 32 30 27 26 26 26 24 23 24 22 20 18 18 18 17 15 14 14 14 13 15 16 17 20 21 21 25 28 28 29 28
4 4 2 2 2 1 2 2 3 5 3 3 1 3 5 5 6 7 5 4 4 5 7 6 5 5 5 4 3 4 4 4 6 9 11 11 10 11 12 13 14 15 15 15 15 16 16 16 18 19 19 20 21 22 23 23 22 21 19 20 22 24 26 27 29 30 32 32 30 28 28 28 26 24 24 24 23 21 19 17 15 13 13 14 15 16 18 19 21 23 25 24 24 26 26 26 26
0 2 1 3 3 1 3 3 3 6 5 3 1 3 8 8 8 7 6 4 5 7 6 5 5 5 5 4 4 4 4 5 6 8 10 11 11 12 13 13 14 15 15 14 15 15 15 15 17 18 18 19 20 21 22 23 23 22 22 21 21 23 25 27 29 30 31 32 32 30 28 27 26 25 24 23 24 23 21 19 16 12 12 13 16 17 19 20 22 25 26 25 24 24 24 25 25
4 3 2 2 4 3 4 4 3 5 4 4 1 3 7 8 8 7 7 4 5 7 6 5 5 4 4 4 4 4 4 6 7 8 10 12 12 12 14 14 16 16 14 14 15 14 14 15 17 17 17 18 19 20 22 24 25 25 24 23 22 23 24 26 27 29 30 31 30 30 28 27 26 25 24 23 23 22 22 21 18 16 14 14 15 17 18 19 21 23 24 25 25 24 22 22 23
3 3 2 3 2 4 5 3 4 5 4 4 2 4 7 8 9 7 6 4 5 7 6 6 6 4 4 4 5 5 5 7 8 8 9 11 13 13 14 15 17 17 15 14 15 14 14 15 16 16 16 16 18 19 20 22 24 25 24 24 23 22 23 24 26 27 29 29 29 28 28 27 25 25 25 24 22 21 20 20 19 18 16 15 16 17 17 17 19 21 22 23 23 24 23 20 19
1 2 2 2 1 4 5 2 4 6 4 4 3 7 10 9 8 8 4 3 5 7 6 6 6 5 5 4 6 6 5 7 8 9 9 10 13 14 14 15 17 18 17 16 16 15 14 15 15 15 15 15 16 17 17 17 19 20 20 20 20 20 20 21 23 25 26 27 28 28 27 26 25 24 23 22 22 20 19 18 18 18 17 17 17 17 17 17 19 19 20 21 20 22 22 19 16
3 0 0 2 3 5 6 3 5 7 3 4 5 7 10 9 7 7 4 5 5 6 7 6 6 5 5 4 6 6 5 7 7 9 10 10 12 13 14 16 17 18 19 18 16 15 15 15 15 14 14 15 15 16 15 15 16 17 17 18 18 18 18 18 18 19 21 23 25 26 27 26 24 23 22 21 20 19 19 18 17 16 15 16 17 18 17 18 19 18 19 20 20 20 17 13 9
4 3 3 2 4 3 4 4 7 8 1 3 5 4 6 7 6 6 3 4 4 4 4 5 4 5 6 5 5 5 5 7 6 8 10 11 13 13 14 16 17 18 19 19 17 16 15 15 16 15 14 13 13 14 14 14 15 15 16 16 16 16 16 16 16 17 18 20 23 24 25 25 24 23 21 20 18 17 17 16 16 15 14 13 14 15 16 16 16 16 17 18 19 17 11 6 3
3 2 4 1 4 2 4 5 8 7 1 2 5 3 4 5 5 5 4 2 4 4 5 6 5 5 5 5 5 5 5 6 6 7 9 11 12 13 14 15 16 17 18 19 18 17 16 17 17 15 15 13 12 12 12 13 14 15 16 16 17 18 19 19 20 20 20 20 20 21 22 22 23 23 21 20 18 16 15 15 14 14 13 12 11 12 13 12 13 14 15 15 15 14 11 7 4
4 0 4 2 3 5 5 6 6 4 3 4 6 5 4 6 4 6 5 5 5 5 6 7 7 6 5 5 7 6 5 6 6 8 10 11 12 14 14 14 15 16 17 18 17 17 17 17 18 17 16 14 12 11 11 12 13 15 16 16 17 18 20 20 20 20 19 18 17 17 17 18 19 20 21 20 19 17 15 13 12 12 11 11 10 10 10 9 10 11 11 10 10 10 10 9 10
2 1 4 3 2 2 3 5 3 3 2 4 5 4 3 6 5 6 5 6 7 6 6 7 7 6 6 5 6 6 6 6 6 8 11 12 13 14 15 14 14 15 17 17 17 17 17 17 18 18 18 16 14 13 12 11 11 13 14 14 13 14 15 16 16 15 15 15 14 14 13 14 15 16 17 18 18 17 15 13 12 10 9 9 8 8 7 7 7 6 5 5 5 5 6 8 12
1 2 5 3 1 1 2 3 3 1 2 4 5 4 1 4 5 6 4 5 7 7 7 7 6 6 6 6 6 6 6 6 6 7 9 13 14 14 15 15 15 15 16 16 17 17 17 17 18 18 18 17 16 15 13 12 11 12 12 13 12 12 12 13 14 14 13 13 13 13 12 11 12 13 14 14 15 15 15 14 12 10 8 7 5 5 5 4 3 2 2 3 4 5 6 7 10
3 3 4 1 2 2 1 3 2 1 1 3 6 3 1 4 6 5 4 4 6 6 6 7 7 6 7 7 7 7 6 7 6 7 10 14 16 16 16 16 16 16 16 16 17 17 17 18 18 18 17 17 17 17 16 14 12 12 12 12 12 12 12 12 12 13 13 13 13 13 12 11 10 10 11 12 12 12 12 12 11 10 9 7 6 4 3 3 2 1 1 1 2 4 5 6 8
1 4 3 1 2 2 2 4 2 2 4 1 6 3 2 4 6 4 2 2 5 6 6 6 6 6 6 6 7 7 6 6 7 9 12 15 17 18 17 16 16 17 16 16 17 17 18 18 18 18 17 16 16 16 17 16 14 13 13 12 12 12 11 12 12 12 12 13 13 13 13 12 11 10 10 10 10 10 10 10 9 9 9 8 7 5 4 3 2 2 3 3 3 3 5 7 7
1 4 4 3 3 3 3 2 3 4 3 3 5 2 2 2 5 3 3 4 5 4 4 6 6 6 6 6 6 6 6 6 6 8 12 16 17 17 16 16 17 16 16 16 17 17 17 18 18 19 18 16 15 15 16 17 16 16 14 13 13 13 12 12 12 12 12 13 13 13 13 13 12 11 10 9 9 9 9 9 9 8 8 7 6 5 4 3 2 2 3 4 4 4 6 8 8
2 3 3 2 3 3 3 4 5 4 2 4 3 1 2 2 5 5 5 6 5 5 4 5 6 6 6 6 6 6 6 6 6 6 9 14 15 15 15 16 17 16 16 16 16 17 17 17 17 19 19 17 16 15 15 15 16 17 17 16 15 14 13 12 12 12 12 12 13 13 13 13 13 12 11 10 9 9 9 9 9 8 8 8 7 6 5 4 3 2 2 3 5 6 7 9 9
4 3 4 3 2 4 3 4 3 1 4 3 1 1 0 4 7 6 5 7 7 6 6 6 6 6 6 6 7 6 5 6 6 6 7 10 12 14 15 16 17 17 17 17 17 17 17 17 17 18 19 18 17 17 16 16 16 16 17 18 18 17 16 14 14 13 12 12 12 12 12 12 13 13 12 11 10 9 9 8 8 9 9 8 8 8 7 6 5 4 4 3 4 5 6 8 9
4 2 3 3 2 4 3 4 3 2 4 3 1 0 2 4 4 5 7 7 7 6 6 6 6 6 7 7 7 6 6 6 6 6 6 8 12 13 14 15 17 18 17 17 17 17 17 17 17 18 20 19 18 18 18 18 17 17 17 18 18 19 18 17 16 16 14 13 12 13 13 13 12 12 12 12 11 11 10 10 9 9 9 9 9 9 9 9 8 8 7 6 6 6 6 7 8
3 1 3 3 3 3 1 3 1 3 5 4 2 1 2 2 3 5 7 6 5 5 5 5 5 6 6 7 7 7 8 7 6 6 7 10 13 13 13 14 15 16 17 17 17 17 17 17 17 18 20 20 19 19 19 19 18 18 18 18 18 18 19 19 19 18 17 15 14 14 14 14 13 13 13 12 12 12 12 12 11 11 10 11 10 10 11 11 11 10 10 10 9 8 8 8 8
2 1 3 2 2 3 1 2 3 1 3 4 2 2 4 3 3 5 3 5 6 5 6 5 7 7 5 6 8 7 7 6 6 5 6 11 14 13 13 14 14 15 15 16 17 16 16 17 17 18 19 20 20 20 20 19 19 18 18 18 19 19 19 19 19 19 19 18 17 17 17 16 15 15 14 14 13 13 13 13 14 13 12 12 12 11 12 12 13 13 12 12 11 11 11 11 10
2 2 2 1 3 5 3 0 1 4 1 4 2 3 5 3 3 5 6 6 7 6 6 6 7 7 6 6 8 7 6 6 6 6 7 11 14 14 14 14 15 15 16 17 17 16 16 16 17 18 18 19 18 18 18 18 18 18 18 18 18 19 19 20 20 19 19 20 20 20 20 19 18 18 17 16 15 15 14 14 15 15 15 15 14 14 13 13 14 15 14 14 14 13 13 13 12
2 2 1 2 3 4 3 1 4 5 1 4 3 3 6 3 2 5 5 6 8 7 7 7 7 7 6 7 8 7 8 7 6 7 9 12 14 15 15 15 15 16 16 17 17 16 16 16 16 17 17 17 16 16 16 17 17 17 17 17 17 18 19 20 20 20 21 21 22 21 21 22 21 20 20 19 18 17 17 17 17 16 17 17 17 17 16 15 16 16 16 16 16 15 15 15 15
2 2 1 1 3 1 2 2 2 3 3 5 5 4 4 3 3 3 3 7 8 8 7 6 7 8 7 7 8 8 8 7 7 7 7 11 14 15 15 15 16 16 16 17 17 16 16 16 15 16 16 15 15 15 15 16 16 17 17 17 17 17 17 18 19 20 22 23 23 23 23 23 22 22 22 21 21 21 20 20 19 19 18 18 19 19 19 18 18 18 18 19 18 17 18 18 17
2 3 2 2 3 2 1 2 1 0 2 4 5 5 3 5 5 5 6 8 8 7 6 5 8 8 7 7 7 8 8 7 7 7 6 10 15 16 15 15 16 16 17 17 17 17 16 15 15 15 15 15 15 15 15 15 15 16 17 17 17 17 17 18 18 20 22 23 23 24 25 25 24 24 24 24 24 23 23 23 22 22 21 21 21 20 20 21 21 21 21 21 21 20 20 20 20
2 3 3 2 2 2 1 1 1 3 2 1 2 5 6 6 4 6 7 7 7 7 6 6 7 7 7 7 7 7 7 7 8 7 7 11 16 16 15 14 15 15 16 16 16 16 16 15 15 15 15 15 15 16 16 16 16 16 16 17 17 17 17 18 18 19 21 22 23 23 24 25 26 27 27 27 27 26 26 26 25 25 25 24 24 23 22 22 23 24 24 24 23 23 23 23 22
0 1 1 2 2 2 3 2 3 1 2 3 2 4 9 6 3 5 6 6 6 7 6 6 7 8 8 7 7 8 8 8 9 8 8 12 15 16 15 14 14 14 15 15 15 15 15 15 15 15 15 15 15 15 15 16 16 16 17 17 16 17 17 18 19 20 21 22 23 23 24 25 26 27 27 29 29 29 29 28 28 28 28 27 27 26 25 24 24 26 26 26 26 26 26 26 25
Wind_Direction
9 22 26 16 356 61 60 63 68 7 70 80 33 47 3 359 151 60 17 349 16 41 11 46 6 4 71 96 105 87 50 43 87 13 284 323 341 340 339 340 342 341 339 341 343 348 351 355 354 346 346 346 345 343 342 341 339 339 338 338 338 338 337 336 332 332 329 325 325 317 312 308 292 281 270 262 252 244 240 240 239 237 237 230 219 215 211 196 192 195 190 193 195 191 192 190 188
10 18 12 28 30 71 66 48 90 14 58 78 3 13 325 331 41 64 35 2 334 150 131 92 69 57 77 105 105 84 31 7 72 18 264 330 330 332 339 340 341 341 343 343 344 350 351 354 353 347 348 348 346 344 342 340 338 339 338 337 337 337 336 335 332 330 329 326 324 319 314 310 306 296 278 265 257 250 244 241 240 236 234 229 219 211 210 202 195 200 196 199 199 195 193 188 188
8 8 13 60 46 50 72 41 83 75 68 94 1 304 324 1 48 85 59 18 341 151 146 110 89 63 70 83 44 74 42 315 19 349 295 339 335 334 338 337 343 346 347 346 346 351 351 353 352 349 351 349 348 346 343 341 339 339 337 337 336 336 335 334 333 331 330 327 322 321 318 310 311 310 292 275 263 254 246 243 241 237 233 229 224 215 211 205 196 201 199 199 199 194 192 189 188
24 20 31 83 55 35 58 47 79 99 88 129 73 301 323 18 219 105 63 38 15 54 144 98 65 7 71 65 17 69 43 287 20 22 325 337 340 336 337 342 348 351 352 349 349 351 352 354 352 350 352 351 351 349 346 344 341 339 338 338 337 335 333 332 333 332 329 328 324 322 318 305 306 310 300 287 274 259 251 248 244 239 234 228 225 218 212 208 199 200 199 197 196 193 193 192 190
60 58 71 88 71 48 73 70 63 80 114 158 118 301 317 318 194 122 52 42 39 39 18 37 74 340 59 52 26 78 333 296 2 18 346 334 341 342 345 349 349 353 354 350 353 352 352 355 352 351 353 352 353 351 350 347 344 341 340 340 338 335 332 331 331 331 328 327 325 324 319 303 302 309 306 300 285 267 257 252 246 242 236 229 225 219 212 212 205 201 199 197 195 194 195 193 190
80 66 68 75 75 88 69 74 67 68 120 159 120 300 323 336 24 106 11 20 39 45 30 27 104 91 61 32 51 94 337 339 322 353 345 340 349 351 351 351 352 356 355 352 354 353 353 355 353 354 354 354 354 353 352 350 348 344 342 341 339 336 332 330 329 329 327 325 325 324 322 312 305 306 305 299 291 277 267 258 250 246 239 229 223 221 217 214 208 205 201 196 196 196 196 194 190
110 66 55 67 57 50 71 82 84 77 51 86 113 353 335 332 348 53 9 354 16 17 27 21 87 102 72 104 56 45 50 21 330 339 346 351 356 357 357 357 356 358 357 352 353 354 354 355 356 357 356 356 355 355 355 354 353 350 346 344 340 336 333 331 330 328 326 325 324 323 322 318 312 306 299 293 289 286 286 277 259 252 247 236 227 225 222 217 210 207 204 197 195 199 198 195 195
79 83 24 71 58 37 82 81 70 104 35 39 76 10 357 347 10 62 24 13 34 351 3 352 19 94 11 66 111 269 23 14 352 347 352 0 1 1 4 1 356 357 357 351 354 358 355 356 358 359 359 359 358 358 357 356 355 352 349 347 344 339 336 333 331 329 326 323 322 321 320 317 315 309 300 293 290 291 293 292 271 254 250 244 234 230 226 220 213 208 206 199 195 200 200 198 199
60 67 41 72 80 65 80 67 50 74 27 22 17 12 1 8 48 76 54 29 23 354 0 324 351 100 152 65 160 257 317 357 356 354 357 4 2 3 5 2 355 353 354 353 359 1 357 358 360 1 1 1 1 1 359 356 353 350 347 347 347 343 338 334 332 329 325 322 319 319 318 316 314 311 305 300 299 298 293 290 283 261 250 245 238 235 231 224 216 209 206 200 196 200 201 202 204
46 45 80 78 82 83 66 49 47 44 354 24 16 2 341 0 64 60 72 37 331 352 347 307 16 99 148 130 241 258 328 351 356 357 360 3 2 4 3 360 355 354 355 358 3 2 359 360 1 2 3 3 3 4 2 359 355 351 348 346 346 344 339 334 331 328 324 320 319 317 316 314 313 312 306 304 304 300 292 281 280 275 259 249 241 236 232 225 217 212 208 201 198 200 200 202 206
46 8 80 86 66 85 89 89 89 77 302 351 358 333 341 9 70 42 38 56 336 348 339 350 49 104 127 177 250 221 285 344 356 357 358 0 1 2 2 0 1 3 1 2 5 2 0 2 2 1 3 5 4 6 6 4 358 354 351 346 344 343 339 335 332 329 325 320 317 316 314 313 312 312 308 304 305 299 290 280 275 275 264 248 241 234 230 225 220 215 210 205 200 200 199 201 205
66 4 63 83 72 108 128 126 133 152 330 3 345 308 6 45 66 71 46 66 347 2 348 358 54 139 95 309 262 221 274 343 358 355 353 358 0 1 2 3 6 8 6 5 4 3 3 4 2 0 3 5 5 7 8 8 4 357 351 347 344 342 339 335 333 330 327 322 317 315 313 313 311 311 308 303 305 304 293 279 270 271 265 252 246 238 230 225 222 216 209 207 204 201 199 200 203
90 97 84 87 88 115 123 128 153 120 357 321 242 291 38 66 99 171 128 65 4 33 343 305 222 101 86 266 297 272 313 349 360 348 348 358 359 1 2 4 8 8 9 7 4 4 5 5 3 1 3 5 5 7 9 9 7 1 353 348 344 341 340 335 332 330 328 324 318 316 314 313 313 310 306 304 306 303 287 268 260 266 262 250 251 241 228 223 220 215 209 206 205 203 201 200 199
115 141 95 102 93 103 123 122 153 111 22 258 240 283 346 89 171 180 120 60 358 64 278 303 130 98 41 308 330 304 322 347 353 337 347 360 358 1 3 5 9 9 10 8 6 4 4 5 3 2 4 5 4 7 9 8 9 5 359 355 347 341 340 337 333 329 328 325 321 318 317 315 314 309 305 304 301 295 282 268 257 261 258 248 255 243 224 222 219 213 210 207 206 205 202 199 199
106 134 78 100 91 78 119 128 159 121 155 237 233 245 24 106 165 121 119 109 329 258 225 351 48 98 75 2 294 276 316 341 343 333 345 358 357 0 1 6 10 11 11 8 7 5 4 4 3 4 4 4 4 6 7 6 7 4 1 359 354 345 340 338 335 330 326 324 323 320 320 318 316 310 304 297 290 289 287 279 260 257 257 250 252 242 224 225 223 213 211 211 209 206 203 201 200
87 110 72 88 88 80 117 118 133 102 183 224 233 167 66 315 213 99 178 147 123 332 45 359 10 84 164 186 256 283 324 336 331 333 343 354 357 357 359 6 10 11 11 9 8 5 4 3 3 5 3 4 4 5 5 4 3 1 359 358 357 352 343 339 336 332 326 323 324 322 322 321 320 313 302 293 287 286 288 287 268 255 254 251 246 241 229 225 225 217 213 215 211 206 205 201 200
56 73 68 82 101 110 158 159 153 136 197 228 288 167 129 294 318 116 164 92 103 6 43 357 344 94 171 218 269 300 328 327 317 338 347 355 357 353 357 3 6 8 9 9 8 4 3 3 3 4 3 4 4 5 4 3 3 1 358 357 357 355 350 345 337 333 328 323 322 322 327 328 326 320 309 301 293 288 287 287 274 255 249 249 247 245 232 222 226 219 215 217 211 206 205 200 199
51 65 71 94 131 122 172 183 184 137 145 210 289 154 140 167 310 300 53 50 59 17 9 346 336 294 230 252 280 311 327 317 324 350 353 358 356 352 354 359 2 3 3 5 7 5 2 1 2 3 3 3 4 5 4 3 3 1 358 356 356 355 355 351 340 333 329 323 321 323 330 331 329 323 315 308 301 297 293 288 278 264 252 244 246 248 235 224 223 216 215 216 212 209 206 198 198
67 95 77 105 176 164 185 176 181 138 145 170 133 146 125 126 255 79 89 12 37 38 323 339 343 302 300 297 303 330 330 295 343 357 357 359 355 351 351 354 358 358 358 1 4 4 2 359 360 3 3 3 4 4 4 4 4 1 359 356 355 355 356 354 346 334 328 327 327 326 328 329 329 322 316 310 304 300 294 291 285 275 258 244 244 246 239 230 221 213 214 214 211 211 206 198 197
66 92 80 158 189 147 253 147 144 166 151 136 136 150 81 69 237 94 137 160 57 101 264 332 324 285 299 306 315 333 326 291 355 360 0 0 354 349 348 351 354 354 355 358 1 4 2 358 359 2 3 3 4 3 4 5 3 1 358 355 353 355 356 355 353 342 330 328 328 325 324 324 324 321 316 311 308 303 297 295 293 283 265 248 244 245 244 241 222 208 209 209 208 209 206 200 198
61 69 110 175 172 111 298 321 88 164 143 139 156 107 81 273 12 94 148 136 337 255 230 215 232 257 270 289 307 321 314 304 1 358 1 1 353 349 349 349 351 352 354 357 1 4 1 358 357 0 3 4 5 3 4 4 3 1 358 356 353 355 356 355 356 351 338 329 326 324 321 319 319 322 319 314 315 312 305 302 300 293 273 248 239 244 248 248 220 203 206 210 212 214 212 204 199
74 27 93 153 151 116 225 276 60 151 110 106 107 94 139 279 19 107 148 163 244 235 221 210 218 239 248 275 297 307 306 327 350 355 5 360 350 349 350 349 350 351 354 358 1 2 0 358 357 360 3 5 5 3 3 3 3 2 359 356 354 356 357 356 354 350 344 335 327 325 323 319 319 322 322 319 320 319 313 309 306 301 285 249 234 245 250 248 221 205 207 211 216 224 219 209 203
94 42 29 46 119 124 201 318 25 99 92 82 111 122 357 56 2 176 139 183 226 225 215 212 228 245 259 281 283 288 298 311 326 340 3 357 349 348 350 348 348 347 350 356 359 1 1 1 1 1 3 3 4 3 3 6 5 4 0 356 355 357 358 357 354 350 345 339 331 328 327 323 320 321 322 325 325 325 319 315 311 304 292 253 235 251 253 253 229 210 209 210 215 224 220 210 203
84 87 25 28 84 113 181 106 60 84 95 84 211 84 42 109 168 112 171 233 246 246 231 230 249 266 285 289 273 275 287 289 303 313 359 357 349 349 350 347 347 345 347 355 358 1 2 3 4 2 3 2 2 2 2 7 8 5 0 354 354 359 360 357 356 357 352 346 341 336 333 330 325 320 322 328 331 330 325 322 315 304 296 257 236 253 258 261 233 210 211 215 216 220 216 206 199
68 111 157 82 80 113 146 91 74 86 98 42 81 68 256 193 155 96 239 248 252 245 243 256 274 295 301 283 270 280 293 294 303 290 333 353 347 348 352 349 348 347 348 354 357 0 3 4 4 2 3 2 1 2 2 6 7 3 357 354 352 354 360 1 359 1 1 358 355 350 348 342 334 325 324 331 334 333 329 326 313 297 289 252 229 248 257 262 243 219 214 213 212 213 205 197 193
89 126 141 127 119 175 80 76 56 76 67 38 74 351 286 262 2 271 242 239 246 254 267 287 302 302 293 273 271 290 300 306 315 303 330 348 345 346 352 353 350 348 348 352 355 359 2 3 4 2 3 2 1 2 1 3 4 1 359 357 353 352 359 3 2 4 6 5 2 2 3 355 345 333 331 335 337 337 330 322 308 289 275 236 214 242 258 258 257 240 220 207 203 200 187 185 185
129 116 105 104 120 239 47 103 285 332 340 52 117 244 289 318 354 274 259 246 246 277 286 304 308 274 268 265 281 308 288 307 321 310 332 342 343 345 349 352 351 350 347 349 356 360 1 1 2 2 3 2 1 2 1 1 4 5 4 3 0 359 359 0 4 8 9 12 11 11 12 6 356 344 340 341 341 342 335 324 307 278 258 216 198 219 245 252 265 259 226 203 193 186 172 173 175
120 116 82 50 63 33 24 74 251 334 308 126 125 202 305 341 352 228 251 256 242 257 277 305 298 259 256 263 290 307 281 314 329 312 334 337 341 343 344 349 351 351 347 348 354 358 0 1 1 1 1 2 2 3 1 2 7 10 10 9 8 9 5 360 5 12 15 18 20 20 19 14 7 358 353 353 353 353 349 342 324 272 241 199 193 207 226 240 259 274 211 183 175 173 165 164 167
120 111 88 25 22 36 2 316 260 5 229 171 120 9 325 307 243 239 249 253 20 295 287 306 296 269 266 273 301 303 289 317 324 320 333 333 337 337 339 347 349 351 348 348 351 356 2 1 359 358 359 1 3 4 2 3 9 13 14 13 11 13 12 4 5 13 17 22 27 29 26 21 18 12 10 14 14 11 10 15 26 142 135 143 174 194 207 214 199 173 158 154 156 163 162 159 162
135 56 91 57 11 10 333 340 337 314 194 163 110 341 297 268 253 255 258 225 97 306 294 307 311 297 281 288 313 308 309 316 310 333 333 330 335 333 337 345 350 352 349 349 350 354 0 359 358 357 357 359 3 6 5 5 10 15 17 16 15 16 17 12 9 13 19 25 31 33 33 31 28 26 29 33 31 31 43 61 83 109 117 129 152 173 190 188 167 160 155 149 149 155 155 154 158
103 30 48 49 52 315 303 346 27 351 204 90 88 195 261 273 272 259 252 194 159 271 284 300 309 295 280 296 314 308 321 298 292 331 335 331 331 330 335 341 350 353 351 352 350 353 357 356 358 357 356 357 2 7 6 6 9 15 18 19 19 19 20 20 18 18 23 30 35 36 39 40 39 37 40 45 46 49 59 67 80 95 108 123 139 151 164 168 161 153 154 153 148 150 151 147 149
45 58 336 356 80 302 304 327 68 37 279 50 85 225 267 273 272 261 251 173 164 248 276 293 300 284 271 287 306 311 322 303 304 337 346 343 334 332 335 340 349 352 352 352 348 350 351 352 356 357 357 357 359 5 7 7 9 14 19 21 22 21 22 25 26 25 27 35 42 44 45 46 47 47 47 50 54 58 61 68 79 91 105 119 125 133 139 145 153 150 149 153 148 146 147 144 142
357 78 97 335 35 6 318 315 45 356 288 338 92 233 278 272 280 289 274 196 193 249 273 286 287 271 258 273 304 316 321 321 326 343 351 347 338 338 339 341 347 350 351 350 347 348 346 348 353 355 356 357 358 1 5 8 10 14 18 21 23 23 23 26 29 30 30 33 41 48 49 48 50 53 55 54 55 58 60 67 79 88 99 108 113 119 123 128 140 143 137 139 142 138 137 137 137
329 28 71 330 350 338 314 298 338 9 24 319 282 214 252 268 295 305 276 216 205 241 264 273 269 267 268 288 323 314 313 308 314 335 346 343 340 342 341 342 346 348 350 348 348 347 343 344 348 350 354 358 358 359 1 5 9 15 17 19 22 23 24 27 29 32 32 31 35 43 48 50 50 52 57 59 59 59 59 64 73 84 96 103 110 111 113 121 130 136 131 126 129 130 127 124 125
257 359 41 336 318 284 307 280 321 9 8 319 325 248 266 284 301 301 275 228 202 235 255 268 273 281 286 309 318 302 305 288 299 331 340 337 339 340 340 342 345 347 347 346 348 347 345 345 345 346 351 357 360 358 359 2 6 13 17 17 20 22 23 26 30 31 33 33 33 36 42 49 51 51 54 59 64 66 65 66 70 81 96 103 109 109 110 117 123 129 131 128 125 123 122 120 118
171 189 162 256 289 288 277 265 303 357 342 300 274 264 280 294 297 295 285 247 208 251 280 283 287 301 299 312 305 290 295 282 304 335 333 332 336 338 338 339 342 344 344 344 347 348 349 348 346 347 350 355 358 358 0 2 3 7 12 14 15 18 19 23 29 30 32 34 34 34 36 43 49 52 53 54 60 67 72 73 75 82 90 100 108 111 111 114 120 124 125 127 124 115 113 113 113
169 160 188 232 254 288 272 268 316 351 344 278 263 305 292 287 284 280 282 250 216 255 280 279 277 288 289 294 292 284 275 278 309 329 323 329 334 334 335 335 339 341 342 343 345 348 352 351 349 350 352 353 354 358 1 2 0 0 5 8 8 13 16 18 24 28 30 32 34 36 37 39 43 48 51 51 52 59 70 77 83 87 90 98 107 113 117 119 123 125 123 124 123 117 113 111 114
119 169 224 294 324 285 273 257 314 359 7 277 350 341 301 293 287 276 268 213 217 233 242 258 253 256 275 271 275 279 276 293 319 318 310 327 334 333 332 332 338 340 340 340 342 346 351 352 352 353 354 354 351 352 357 1 1 358 358 2 3 9 16 17 20 24 26 28 30 33 36 38 41 44 48 52 54 55 60 68 80 89 95 100 106 112 120 127 130 134 135 131 129 128 125 125 127
36 67 112 349 332 300 295 289 323 358 10 282 347 344 302 299 294 282 253 207 233 231 216 227 221 234 267 263 269 284 298 309 320 306 299 321 334 331 328 329 335 338 338 339 339 342 347 350 351 353 355 356 354 350 350 356 360 357 356 359 1 6 15 19 20 23 25 27 28 29 31 35 39 43 46 50 56 60 61 63 70 79 89 98 107 113 119 127 132 138 143 139 136 131 127 133 141
44 46 63 331 323 346 305 302 334 341 343 275 316 321 298 311 322 314 282 222 270 285 247 249 222 218 245 255 265 273 285 293 297 290 291 315 332 330 327 327 328 333 338 340 339 337 342 346 346 349 353 355 357 355 353 353 355 356 356 358 1 5 11 16 21 25 26 27 27 26 26 28 33 39 44 47 51 58 63 68 71 74 82 92 103 113 120 128 133 137 141 140 137 131 124 125 128
359 54 98 2 313 295 248 284 327 335 24 329 336 352 314 331 344 314 320 334 309 338 332 295 276 258 270 292 286 265 258 263 265 275 288 309 323 325 326 324 322 327 334 339 340 337 338 340 339 341 345 351 354 355 356 356 354 354 356 359 2 4 6 9 15 18 20 23 23 24 23 23 25 30 37 42 46 50 57 64 72 78 83 90 98 106 117 127 136 143 146 147 147 143 139 131 122
338 282 138 156 261 250 266 305 331 8 34 351 21 40 302 319 330 278 312 344 308 330 337 292 284 293 302 300 285 281 274 258 251 261 281 300 311 318 324 325 321 321 327 334 337 337 336 334 333 332 336 344 349 349 350 352 352 350 351 355 358 359 359 3 7 8 10 14 17 19 21 22 22 24 28 34 39 43 48 55 65 76 83 88 91 95 106 120 134 146 151 154 158 159 158 152 148
13 200 158 152 185 232 306 334 7 54 350 319 43 82 268 314 321 273 304 329 302 314 316 290 289 293 293 283 275 285 285 275 271 273 283 294 301 308 314 321 321 317 321 327 329 333 334 332 330 327 328 334 340 344 344 344 346 346 347 348 350 350 350 355 0 0 3 6 8 14 18 20 21 21 23 27 32 36 40 45 50 60 70 78 83 89 98 114 133 146 157 170 181 192 192 179 167
350 164 136 133 120 116 336 19 51 64 288 331 19 82 200 296 283 271 307 325 313 318 311 304 305 290 287 287 281 278 268 267 277 283 287 289 294 299 303 313 318 316 319 320 322 327 329 329 329 327 326 328 331 336 340 339 337 337 342 344 344 342 340 343 350 353 356 358 1 7 13 16 17 19 20 21 25 30 34 38 40 43 50 59 66 75 85 95 121 143 169 197 213 225 225 213 193
276 173 139 179 155 142 118 64 46 306 48 352 327 16 78 273 275 302 346 339 311 303 289 294 301 292 289 288 284 277 266 263 261 262 274 282 290 296 299 305 310 315 318 316 316 320 322 324 324 324 326 328 328 329 332 335 333 329 330 334 338 339 335 335 339 342 344 349 353 358 5 11 12 12 14 15 17 21 25 29 32 36 38 40 39 35 39 40 31 5 323 230 226 226 221 222 214
265 138 107 29 67 82 74 71 65 22 52 308 286 343 41 278 285 314 353 294 270 267 267 273 279 283 280 274 275 274 272 270 261 259 268 280 290 297 299 299 303 311 316 313 312 313 316 319 319 319 323 327 329 327 325 326 328 324 320 322 326 331 332 331 333 335 336 339 344 349 354 0 4 5 5 5 5 8 13 17 18 21 27 31 31 28 23 7 346 325 312 299 284 257 222 220 226
85 85 51 25 23 44 57 38 71 62 13 264 260 328 61 291 284 254 215 220 213 211 253 273 281 285 274 262 260 261 264 266 269 272 279 288 298 304 304 300 302 310 314 312 312 311 313 314 315 315 317 322 325 324 320 319 320 319 316 315 316 319 324 324 325 328 331 332 335 340 343 346 352 355 356 356 352 352 355 358 1 4 6 8 10 17 21 12 352 312 294 286 284 275 247 236 240
71 76 65 52 334 16 34 353 33 68 299 268 261 321 101 206 264 247 232 237 211 185 207 241 263 273 270 266 259 252 252 260 270 277 285 296 304 309 309 306 308 313 314 315 314 313 312 312 311 310 313 318 320 318 316 314 314 313 313 313 312 314 315 314 315 318 321 322 324 330 333 334 337 340 344 346 344 343 341 339 342 342 341 342 345 349 351 353 352 331 299 281 274 268 258 254 256
64 66 62 64 339 12 18 331 8 40 258 259 240 357 162 228 245 244 244 245 227 207 201 208 226 247 259 265 261 260 261 265 272 274 282 291 293 297 303 308 311 313 314 315 315 314 313 313 311 307 309 315 316 315 313 310 309 309 310 311 310 311 310 308 309 311 313 312 310 315 319 322 325 327 331 333 332 333 331 328 325 322 322 323 324 326 326 325 323 319 311 299 281 267 261 261 264
25 42 59 71 63 41 352 301 337 303 275 272 228 266 289 279 266 230 230 238 230 224 223 216 219 234 253 264 270 279 280 271 269 270 274 275 276 285 295 303 308 311 313 313 312 313 312 311 311 308 308 313 314 313 311 308 306 306 307 307 307 307 307 307 307 307 309 308 304 304 306 308 309 312 316 318 319 320 318 318 315 312 310 308 309 309 307 307 306 303 300 296 289 279 270 265 265
319 211 126 97 111 104 256 253 252 281 293 294 282 241 215 255 285 230 227 258 275 263 261 264 259 253 261 281 286 283 280 276 274 272 270 271 275 284 292 298 304 308 311 312 310 310 309 308 309 307 308 312 313 312 311 309 307 306 303 301 301 301 302 304 305 306 307 306 303 301 300 300 298 299 303 304 305 305 305 306 305 304 301 299 298 296 295 296 295 294 293 291 287 283 277 272 269
275 176 81 66 146 132 128 194 184 206 317 301 274 231 218 217 276 285 298 314 308 298 299 302 287 282 300 301 285 275 274 275 276 274 271 277 284 289 291 298 305 308 312 313 312 312 309 307 308 307 307 310 311 311 311 311 308 305 301 297 296 296 296 298 299 302 305 306 304 300 299 299 296 295 295 294 294 292 291 292 293 294 294 292 290 287 286 286 286 287 287 285 284 280 277 275 272
359 41 50 193 156 118 101 274 11 66 28 285 286 280 292 329 320 318 345 326 304 301 297 287 275 289 310 290 274 274 273 269 268 266 266 277 288 293 294 299 304 309 313 314 316 317 312 308 307 306 307 309 312 313 312 312 310 307 304 299 296 294 293 294 295 297 299 301 301 300 300 300 298 298 296 293 290 286 285 284 284 285 286 286 285 283 281 277 278 280 280 280 281 279 277 274 271
67 55 207 190 102 86 93 50 353 32 8 283 327 303 296 337 323 313 325 295 284 279 275 282 286 289 287 273 273 276 272 273 275 271 271 277 284 292 297 302 304 308 312 314 317 318 315 312 309 306 307 310 313 315 314 313 312 310 309 307 302 298 294 292 292 293 294 295 294 295 297 298 299 300 297 295 292 288 286 283 281 280 279 279 280 280 279 275 273 273 274 275 275 273 273 273 272
100 116 188 116 88 26 24 64 16 8 328 296 314 306 274 221 236 274 250 243 258 267 276 288 277 268 266 270 278 283 285 290 286 279 278 278 282 290 297 304 308 311 312 313 315 316 315 315 313 308 308 310 312 313 313 314 313 311 311 310 307 304 300 295 292 291 291 290 289 290 291 292 295 297 297 296 293 291 289 286 283 281 277 275 275 276 277 275 273 270 270 271 271 268 267 269 270
26 40 355 17 109 141 36 66 110 96 319 304 321 328 283 231 219 195 205 228 237 251 270 267 253 252 255 260 270 280 284 286 280 278 276 274 281 290 296 302 308 312 313 312 312 311 312 313 313 311 310 311 311 311 311 311 311 310 309 308 308 308 306 301 296 292 289 287 286 287 287 287 289 291 292 292 292 291 290 289 287 284 280 277 274 273 273 273 272 270 269 270 270 267 265 266 267
359 30 16 12 67 89 72 31 92 119 132 225 325 315 279 253 214 183 208 236 228 220 234 247 249 250 252 256 264 271 273 276 275 271 268 272 279 287 296 301 305 309 312 313 311 309 308 308 308 309 310 311 312 313 312 309 308 306 302 303 306 306 305 302 298 294 290 288 287 287 287 288 288 289 289 289 289 289 289 289 287 285 283 281 278 276 273 270 268 269 268 268 268 265 264 265 266
220 113 122 140 120 83 71 336 320 79 135 169 161 284 277 263 209 199 220 236 232 223 221 243 259 258 261 268 267 265 267 269 270 270 268 270 276 284 295 302 307 311 314 315 313 309 306 304 303 303 304 306 311 315 314 311 307 301 297 298 298 298 299 299 298 295 292 292 292 292 292 292 290 290 290 289 289 289 288 287 286 285 284 282 281 280 277 271 267 266 266 265 266 264 263 263 263